Weather in San Lorenzo

Argentina     32°44′35″S   60°44′11″W
temp.,
°C
wind,
m/s
gust,
m/s
humid.,
%
clouds,
%
prec.,
mm/h
press.,
hPa
HPBL,
m
17 may, mon
mon1700:00+14sse11665 0.0 102014
03:00+14s1269100 0.0 102016
06:00+12s23725 0.0 102152
09:00+13sse236490 0.0 1022126
12:00+18se224425 0.0 1022593
15:00+21s22362 0.0 1020914
18:00+18ssw22467 0.0 101927
21:00+15ese34578 0.0 102084
18 may, tue
tue1800:00+13ene356675 0.0 102097
03:00+12ene34729 0.0 102098
06:00+10ne247611 0.0 101982
09:00+11ne247297 0.0 1020147
12:00+18ne344816 0.0 1020579
15:00+21ne343893 0.0 10161013
18:00+18ene354881 0.0 1016147
21:00+15ene385961 0.0 1016173
19 may, wed
wed1900:00+13ene3863100 0.0 1017188
03:00+12ene3667100 0.0 1016142
06:00+11ene3871100 0.0 1015175
09:00+12ene3868100 0.0 1016220
12:00+18ne4644100 0.0 1016658
15:00+17ene374695 0.0 1014253
18:00+18e3746100 0.0 1013204
21:00+17e41049100 0.0 1013343
20 may, thu
thu2000:00+15ene3967100 0.4 1014273
03:00+14e2582100 1.9 1014260
06:00+13ene3785100 0.6 1013240
09:00+13e3685100 0.6 1015250
12:00+15ene2375100 0.0 1016318
15:00+16e236899 0.0 1014405
18:00+16se2367100 0.0 1014187
21:00+15se2569100 0.0 1015202
21 may, fri
fri2100:00+15se2661100 0.0 1015206
03:00+15e2561100 0.0 1014174
06:00+15ese2361100 0.0 1014135
09:00+14ese2561100 0.0 1015209
12:00+15e2458100 0.0 1015302
15:00+16e2458100 0.1 1013361
18:00+15ssw1172100 0.6 101338
21:00+15sse2271100 0.8 101451